STARLINK-5407, 54858

Orbit data source: Space-Track

STARLINK-5407, 54858 is a payload satellite owned by SpaceX/Seattle (US) in LEO that was launched on Wed, 28 Dec 2022 UTC via an FALCON 9 launch vehicle from the Air Force Eastern Test Range (AFETR). Payload-class satellites include a variety of spacecraft equipped with specific instruments for various scientific and technological missions. These include communications satellites like Starlink; space stations such as the ISS; scientific satellites like the Hubble; Earth observation satellites from companies like Planet Labs, Umbra, and HawkEye 360; GPS; miniature CubeSats for education and research; and military/defense satellites.

Loading next visibility...
Identifier
54858, 2022-177AQ
Orbit
LEO
Country
Flag of USUS
Related business
Manufacturer
SpaceX/Seattle
Mission
Operational Commercial Communications
Bus & Motor
STARLINK, Unknown motor
Mass
305 kg wet, ~290 kg dry
Launch date (UTC)
2022-12-28 (3 years ago)
Launch vehicle
FALCON 9
Launch site
Air Force Eastern Test Range (AFETR)
Object type
Payload
Rocket body
Debris
Shape & HBR
Box + 1 Pan, 10.1 m
Radar Cross Section
13.562 m², Large (>1 m²)

Expand to show TLE details & history
Last TLE update: 2 days ago

TLE from 2 days ago
0 STARLINK-5407
1 54858U 22177AQ  26171.28700716 -.00000349  00000-0 -31651-5 0  9996
2 54858  43.0033 261.9901 0001229 272.1556  87.9155 15.27585283192783
Epoch: 2026-06-20T06:53Z
TLE epoch observation values (Epoch: 2026-06-20T06:53:17.418Z)
Latitude
-0.00002°
Longitude
-109.8363°
Altitude
482.778 km
Speed
7.626 km/s
True Right ascension
17h 27m 57s
True Declination
0° 00' 00"
Sunlit
Object was in full shadow at epoch
Visualization orbit readout
Latitude
Unknown
Longitude
Unknown
Altitude
Unknown
Speed
Unknown
Apparent Right ascension
Unknown
Apparent Declination
Unknown
Sunlit
N/A
Visualization observer readout
Local Sidereal Time
21:24:31
Azimuth
Unknown
Elevation
Unknown
Doppler factor
Unknown
Orbital elements
Apogee altitude
485.821 km
Perigee altitude
484.134 km
Semi-major axis
6,863.115 km
Eccentricity
0.00012
Inclination
43.0033°
RAAN
261.9901°
Arg. of periapsis
272.1556°
True anomaly
87.92957°
Mean anomaly
87.9155°
Eccentric anomaly
87.92254°
Mean motion
3.81734 °/min
Orbital period
94.31 mins
BSTAR
-0.0000031651
Loading maneuver chart data...
Computing Atmospheric mass density...
Loading historical data...
Loading historical data...
Loading historical data...
Loading historical data...
Loading historical data...
Loading historical data...
Loading historical data...

Documentation

Showing up to 5 results
|